Hourly Weather Dabroszyn

Today, 17 April, Saturday

Time Temperature Precipitation Wind Pressure Humidity
00:00 +3°C° 0 mm 3 mps 754 mmHg 96%
01:00 +4°C° 0 mm 2 mps 754 mmHg 96%
02:00 +4°C° 0 mm 2 mps 754 mmHg 96%
03:00 +4°C° 0 mm 2 mps 754 mmHg 96%
04:00 +4°C° 0 mm 2 mps 754 mmHg 96%
05:00 +4°C° 0.2 mm 2 mps 754 mmHg 96%
06:00 +4°C° 0.2 mm 3 mps 754 mmHg 96%
07:00 +4°C° 0.2 mm 3 mps 754 mmHg 96%
08:00 +5°C° 0.1 mm 3 mps 754 mmHg 95%
09:00 +7°C° 0.1 mm 3 mps 754 mmHg 94%
10:00 +8°C° 0.1 mm 2 mps 754 mmHg 93%
11:00 +9°C° 0.1 mm 2 mps 754 mmHg 88%
12:00 +9°C° 0.1 mm 2 mps 754 mmHg 84%
13:00 +10°C° 0.1 mm 2 mps 754 mmHg 80%
14:00 +12°C° 0.4 mm 2 mps 754 mmHg 78%
15:00 +12°C° 0.4 mm 2 mps 754 mmHg 76%
16:00 +12°C° 0.4 mm 2 mps 754 mmHg 74%
17:00 +10°C° 0.4 mm 2 mps 754 mmHg 78%
18:00 +9°C° 0.4 mm 2 mps 754 mmHg 83%
19:00 +8°C° 0.4 mm 2 mps 754 mmHg 87%
20:00 +7°C° 0 mm 2 mps 754 mmHg 89%
21:00 +7°C° 0 mm 2 mps 755 mmHg 92%
22:00 +6°C° 0 mm 2 mps 755 mmHg 94%
23:00 +6°C° 0 mm 2 mps 755 mmHg 94%

Tomorrow, 18 April, Sunday

Time Temperature Precipitation Wind Pressure Humidity
00:00 +6°C° 0 mm 1 mps 755 mmHg 95%
01:00 +6°C° 0 mm 1 mps 755 mmHg 95%
02:00 +6°C° 0 mm 1 mps 755 mmHg 95%
03:00 +6°C° 0 mm 1 mps 755 mmHg 95%
04:00 +6°C° 0 mm 1 mps 755 mmHg 95%
05:00 +6°C° 0 mm 2 mps 755 mmHg 94%
06:00 +6°C° 0 mm 2 mps 755 mmHg 92%
07:00 +7°C° 0 mm 2 mps 755 mmHg 90%
08:00 +9°C° 0 mm 2 mps 755 mmHg 85%
09:00 +10°C° 0 mm 3 mps 755 mmHg 80%
10:00 +11°C° 0 mm 3 mps 755 mmHg 75%
11:00 +12°C° 0.1 mm 3 mps 755 mmHg 70%
12:00 +13°C° 0.1 mm 3 mps 755 mmHg 65%
13:00 +14°C° 0.1 mm 4 mps 754 mmHg 60%
14:00 +13°C° 0 mm 3 mps 754 mmHg 61%
15:00 +13°C° 0 mm 3 mps 754 mmHg 63%
16:00 +13°C° 0 mm 3 mps 754 mmHg 64%
17:00 +12°C° 0 mm 3 mps 754 mmHg 69%
18:00 +12°C° 0 mm 2 mps 754 mmHg 74%
19:00 +10°C° 0 mm 2 mps 754 mmHg 79%
20:00 +10°C° 0.1 mm 2 mps 754 mmHg 83%
21:00 +10°C° 0.1 mm 2 mps 754 mmHg 86%
22:00 +9°C° 0.1 mm 2 mps 754 mmHg 89%
23:00 +9°C° 0.1 mm 2 mps 754 mmHg 90%

Day after tomorrow, 19 April, Monday

Time Temperature Precipitation Wind Pressure Humidity
00:00 +9°C° 0.1 mm 2 mps 754 mmHg 91%
01:00 +9°C° 0.1 mm 2 mps 754 mmHg 93%
02:00 +9°C° 0.2 mm 2 mps 754 mmHg 94%
03:00 +9°C° 0.2 mm 2 mps 754 mmHg 95%
04:00 +9°C° 0.2 mm 3 mps 754 mmHg 96%
05:00 +9°C° 0.1 mm 3 mps 754 mmHg 93%
06:00 +8°C° 0.1 mm 4 mps 754 mmHg 90%
07:00 +8°C° 0.1 mm 4 mps 754 mmHg 87%
08:00 +9°C° 0 mm 5 mps 754 mmHg 79%
09:00 +10°C° 0 mm 6 mps 754 mmHg 71%
10:00 +12°C° 0 mm 7 mps 754 mmHg 62%
11:00 +11°C° 0 mm 6 mps 754 mmHg 63%
12:00 +11°C° 0 mm 6 mps 753 mmHg 65%
13:00 +11°C° 0 mm 6 mps 753 mmHg 66%
14:00 +12°C° 0.1 mm 5 mps 753 mmHg 65%
15:00 +13°C° 0.1 mm 5 mps 753 mmHg 64%
16:00 +13°C° 0.1 mm 5 mps 753 mmHg 62%
17:00 +12°C° 0.1 mm 5 mps 753 mmHg 68%
18:00 +10°C° 0.1 mm 5 mps 753 mmHg 73%
19:00 +9°C° 0.1 mm 5 mps 753 mmHg 79%
20:00 +8°C° 0 mm 4 mps 753 mmHg 83%
21:00 +7°C° 0 mm 4 mps 753 mmHg 87%
22:00 +7°C° 0 mm 3 mps 753 mmHg 91%
23:00 +7°C° 0 mm 3 mps 752 mmHg 91%

20 April, Tuesday

Time Temperature Precipitation Wind Pressure Humidity
00:00 +7°C° 0 mm 3 mps 752 mmHg 91%
01:00 +7°C° 0 mm 3 mps 752 mmHg 91%
02:00 +7°C° 0 mm 3 mps 752 mmHg 91%
03:00 +7°C° 0 mm 2 mps 752 mmHg 90%
04:00 +7°C° 0 mm 2 mps 751 mmHg 90%
05:00 +7°C° 0.1 mm 2 mps 751 mmHg 88%
06:00 +7°C° 0.1 mm 2 mps 751 mmHg 87%
07:00 +7°C° 0.1 mm 2 mps 751 mmHg 86%
08:00 +8°C° 0.1 mm 2 mps 751 mmHg 80%
09:00 +9°C° 0.1 mm 2 mps 751 mmHg 74%
10:00 +10°C° 0.1 mm 2 mps 751 mmHg 68%
11:00 +10°C° 0.1 mm 2 mps 751 mmHg 64%
12:00 +12°C° 0.1 mm 2 mps 750 mmHg 60%
13:00 +13°C° 0.1 mm 2 mps 750 mmHg 56%
14:00 +12°C° 0 mm 3 mps 750 mmHg 55%
15:00 +12°C° 0 mm 3 mps 749 mmHg 55%
16:00 +12°C° 0 mm 3 mps 749 mmHg 54%
17:00 +11°C° 0 mm 3 mps 749 mmHg 61%
18:00 +10°C° 0 mm 3 mps 749 mmHg 68%
19:00 +8°C° 0 mm 3 mps 749 mmHg 75%
20:00 +8°C° 0 mm 2 mps 749 mmHg 80%
21:00 +7°C° 0 mm 2 mps 749 mmHg 85%
22:00 +6°C° 0 mm 2 mps 748 mmHg 90%
23:00 +6°C° 0 mm 2 mps 748 mmHg 90%

21 April, Wednesday

Time Temperature Precipitation Wind Pressure Humidity
00:00 +5°C° 0 mm 2 mps 748 mmHg 90%
01:00 +5°C° 0 mm 2 mps 748 mmHg 91%
02:00 +5°C° 0 mm 2 mps 748 mmHg 88%
03:00 +5°C° 0 mm 2 mps 748 mmHg 85%
04:00 +5°C° 0 mm 2 mps 748 mmHg 83%
05:00 +6°C° 0 mm 2 mps 748 mmHg 81%
06:00 +7°C° 0 mm 2 mps 748 mmHg 79%
07:00 +7°C° 0 mm 2 mps 748 mmHg 77%
08:00 +9°C° 0.1 mm 2 mps 748 mmHg 71%
09:00 +10°C° 0.1 mm 3 mps 748 mmHg 66%
10:00 +11°C° 0.1 mm 3 mps 748 mmHg 60%
11:00 +12°C° 0.1 mm 3 mps 748 mmHg 56%
12:00 +12°C° 0.1 mm 3 mps 747 mmHg 53%
13:00 +13°C° 0.1 mm 3 mps 747 mmHg 49%
14:00 +13°C° 0 mm 3 mps 747 mmHg 50%
15:00 +14°C° 0 mm 2 mps 747 mmHg 52%
16:00 +14°C° 0 mm 2 mps 747 mmHg 53%
17:00 +13°C° 0 mm 1 mps 747 mmHg 55%
18:00 +12°C° 0 mm 1 mps 747 mmHg 57%
19:00 +11°C° 0 mm 1 mps 748 mmHg 60%
20:00 +11°C° 0 mm 1 mps 748 mmHg 61%
21:00 +9°C° 0 mm 2 mps 748 mmHg 63%
22:00 +9°C° 0 mm 2 mps 748 mmHg 65%
23:00 +8°C° 0 mm 2 mps 748 mmHg 68%

22 April, Thursday

Time Temperature Precipitation Wind Pressure Humidity
00:00 +8°C° 0 mm 3 mps 748 mmHg 72%
01:00 +7°C° 0 mm 3 mps 748 mmHg 75%
02:00 +7°C° 0 mm 3 mps 748 mmHg 77%
03:00 +5°C° 0 mm 3 mps 748 mmHg 78%
04:00 +5°C° 0 mm 3 mps 748 mmHg 80%
05:00 +7°C° 0 mm 3 mps 748 mmHg 78%
06:00 +8°C° 0 mm 3 mps 748 mmHg 75%
07:00 +10°C° 0 mm 3 mps 748 mmHg 72%
08:00 +12°C° 0 mm 4 mps 748 mmHg 67%
09:00 +14°C° 0 mm 4 mps 748 mmHg 62%
10:00 +17°C° 0 mm 4 mps 748 mmHg 57%
11:00 +16°C° 0.2 mm 5 mps 748 mmHg 54%
12:00 +17°C° 0.2 mm 5 mps 748 mmHg 51%
13:00 +17°C° 0.2 mm 5 mps 748 mmHg 49%
14:00 +17°C° 0.1 mm 5 mps 748 mmHg 53%
15:00 +17°C° 0.1 mm 4 mps 749 mmHg 57%
16:00 +17°C° 0.1 mm 4 mps 749 mmHg 62%
17:00 +14°C° 0.7 mm 4 mps 749 mmHg 71%
18:00 +12°C° 0.7 mm 4 mps 749 mmHg 81%
19:00 +10°C° 0.7 mm 4 mps 750 mmHg 91%
20:00 +8°C° 0.8 mm 4 mps 750 mmHg 92%
21:00 +7°C° 0.8 mm 5 mps 750 mmHg 93%
22:00 +6°C° 0.8 mm 5 mps 751 mmHg 93%
23:00 +5°C° 1.1 mm 5 mps 751 mmHg 93%
Show more